Regional Weather Roundup
Issued by NWS

Home | Current Version | Previous Version | Text Only | Print | Product List | Glossary Off
Versions: 1 2 3 4 5 6 7 8 9 10 11 12 13 14 15 16 17 18 19 20 21 22 23 24 25 26 27 28 29 30 31 32 33 34 35 36 37 38 39 40 41 42 43 44 45 46 47 48 49 50

572
ASUS45 KBOU 271007
RWRCO

WEATHER ROUNDUP FOR COLORADO
NATIONAL WEATHER SERVICE DENVER/BOULDER CO
300 AM MST MON FEB 27 2017

NOTE: "FAIR" INDICATES FEW OR NO CLOUDS BELOW 12000 FEET WITH NO
SIGNIFICANT WEATHER AND/OR OBSTRUCTIONS TO VISIBILITY.

COZ001>005-013-030-031-271100-
...NORTHWEST COLORADO...

CITY           SKY/WX    TMP DP  RH WIND       PRES   REMARKS
CRAIG          CLOUDY    29  15  56 MISG      29.68F
HAYDEN         MOCLDY    21   9  58 S8        29.68F WCI  12
MEEKER         FAIR      24  14  65 N3        29.69F
MOUNT WERNER   NOT AVBL
STEAMBOAT SPGS CLOUDY    11   5  75 CALM      29.70F
WALDEN         NOT AVBL
$$

COZ006>008-011-271100-
...WEST CENTRAL VALLEYS...

CITY           SKY/WX    TMP DP  RH WIND       PRES   REMARKS
GRAND JUNCTION CLOUDY    38  20  48 SE16      29.72F
MONTROSE       CLOUDY    33  11  39 E7        29.78F WCI  27
EAGLE          CLOUDY    20   7  57 E12       29.75F WCI   8
RIFLE          CLOUDY    29  18  63 W7        29.72F WCI  22
DELTA          CLOUDY    37  13  37 NE6       29.78S
NUCLA          CLOUDY    36  19  51 S14       29.82F
$$

COZ017>023-064>068-271100-
...SOUTHWEST COLORADO...

CITY           SKY/WX    TMP DP  RH WIND       PRES   REMARKS
DURANGO        CLOUDY    28  13  53 E6        29.86F WCI  22
CORTEZ         CLOUDY    34  22  61 S5        29.84F WCI  30
PAGOSA SPRINGS FLURRIES  26  15  62 CALM      29.88F
TELLURIDE      FAIR      24  13  62 E9G17     29.78F WCI  14
WOLF CREEK PAS SNOW       9   7  92 S25G37    29.80S VSB 1/2 WCI -13
$$

COZ009-010-012-014-032>034-037-058>063-271100-
...CENTRAL COLORADO...

CITY           SKY/WX    TMP DP  RH WIND       PRES   REMARKS
ASPEN          CLOUDY    17   7  64 W3        29.71F
BUENA VISTA    CLOUDY    24   1  37 CALM      29.74F
COPPER MTN     FAIR      12   1  62 MISG      29.66F HAZE
BERTHOUD PASS  LGT SNOW   3  -6  66 W40G58    29.55F WCI -24
COTTONWOOD PAS CLOUDY    23   5  46 W13G24    29.72S WCI  11
GUNNISON       FAIR       6  -1  73 CALM      29.85F
KREMMLING      CLOUDY    19  10  68 CALM      29.74F
LEADVILLE      FAIR       4  -6  63 E5        29.69F WCI  -5
MONARCH PASS   FAIR       5   1  85 SW28G39   29.81S WCI -18
SALIDA         FAIR      28   2  33 SW15G24   29.84S WCI  16
SUNLIGHT       NOT AVBL
WILKERSON PASS FAIR       9   0  66 SW18G24   29.66F WCI -10
$$

COZ069>075-271100-
...SAN LUIS VALLEY/SANGRE DE CRISTO MOUNTAINS...

CITY           SKY/WX    TMP DP  RH WIND       PRES   REMARKS
ALAMOSA        FAIR      21  13  71 SE8       29.83F WCI  11
LA VETA PASS   FAIR      18   9  68 SW26G46   29.70S WCI  -1
SAGUACHE       FAIR      10   3  72 N9        29.85S WCI  -2
$$

COZ035-036-038>040-271100-
...NORTHERN COLORADO FRONT RANGE...

CITY           SKY/WX    TMP DP  RH WIND       PRES   REMARKS
DENVER INTL AP FAIR      24   3  40 SW8       29.69F WCI  15
DMNS CITY PARK   N/A     23   7  50 NE5       29.69F WCI  17
AURORA         PTCLDY    23   2  39 S6        29.69F WCI  16
FRONT RANGE AP FAIR      28   7  40 S6        29.71F WCI  22
ERIE MUNI ARPT FAIR      15  10  83 CALM      29.71F
BOULDER MUN AP FAIR      23  12  63 CALM      29.71S
CENTENNIAL     FAIR      22   6  50 NE3       29.69F
BROOMFIELD     FAIR      25   7  46 SW3       29.69F
FORT COLLINS   FAIR      18  13  80 CALM      29.72F
LONGMONT       NOT AVBL
$$

COZ041-046-047-076>085-087-088-271100-
...PIKES PEAK/PALMER DIVIDE AND SOUTHERN FOOTHILLS...

CITY           SKY/WX    TMP DP  RH WIND       PRES   REMARKS
COLO. SPRINGS  FAIR      19  -1  41 NE7       29.70F WCI  10
A. F. ACADEMY  FAIR      21  -2  37 S8        29.68F WCI  11
SCHRIEVER AFB  FAIR      21   1  42 N8        29.72F WCI  11
ELLICOTT       NOT AVBL
FALCON         FAIR      20  -2  38 NE6       29.70F WCI  12
FORT CARSON    FAIR      20  -2  37 NE6       29.69F WCI  13
LIMON          FAIR       8   3  80 N7        29.75F WCI  -3
MONUMENT HILL  FAIR      27   5  39 W8        29.70F WCI  18
TRINIDAD       FAIR      21   2  43 W10       29.75F WCI  10
$$

COZ042>045-048>051-090-091-271100-
...NORTHEAST COLORADO...

CITY           SKY/WX    TMP DP  RH WIND       PRES   REMARKS
GREELEY ARPT   NOT AVBL
AKRON          FAIR      23  11  60 SW9       29.73F WCI  13
BURLINGTON     FAIR      22  12  65 S10       29.79F WCI  11
WRAY           NOT AVBL
STERLING       FAIR      18  12  79 W5        29.76F WCI  11
HOLYOKE        FAIR      19  12  73 S6        29.80F WCI  11
FORT MORGAN    FAIR      15  11  83 NW5       29.74F WCI   8
$$

COZ086-089-092>099-271100-
...SOUTHEAST COLORADO...

CITY           SKY/WX    TMP DP  RH WIND       PRES   REMARKS
PUEBLO         FAIR      14  -2  49 SE3       29.74F
LA JUNTA       FAIR      24   6  46 W10       29.76F WCI  14
LAMAR          FAIR      18   9  68 E8        29.78F WCI   8
SPRINGFIELD      N/A     14   8  77 W6        29.77F WCI   5
$$




USA.gov is the U.S. government's official web portal to all federal, state and local government web resources and services.